Temp_Advection
nan nan nan nan nan nan nan nan nan nan nan nan nan nan nan nan nan nan nan nan nan nan
nan 1 1 1 1 1 2 1 1 1 1 1 1 1 1 1 1 1 1 0 0 nan
nan 2 2 2 1 2 1 1 1 1 1 1 1 1 1 0 0 0 1 1 1 nan
nan 1 1 1 2 2 1 1 1 1 0 0 1 -0 0 0 1 1 0 0 1 nan
nan 1 1 2 2 2 1 1 1 1 0 1 1 1 1 1 1 0 -0 0 0 nan
nan 1 2 2 2 1 1 1 1 1 1 1 1 1 1 1 1 1 0 0 1 nan
nan 1 2 2 1 1 1 1 1 1 1 1 1 1 1 1 1 1 1 1 1 nan
nan 1 1 1 1 1 1 1 1 1 1 1 0 1 1 1 0 1 1 1 1 nan
nan 0 1 1 1 1 1 1 1 1 0 0 1 0 1 0 -0 1 0 0 0 nan
nan 1 1 1 1 1 1 1 1 1 0 1 1 0 1 0 1 1 1 1 0 nan
nan 1 1 0 0 1 1 1 1 1 1 0 0 0 1 0 1 0 1 1 0 nan
nan 0 -0 0 1 1 1 1 1 0 1 0 0 1 0 0 0 0 0 0 -0 nan
nan 0 1 1 1 1 0 1 1 1 1 0 0 1 -0 0 -0 -0 -0 -0 -0 nan
nan nan nan nan nan nan nan nan nan nan nan nan nan nan nan nan nan nan nan nan nan nan
Wind_Speed
35 38 39 39 36 34 34 34 33 32 29 27 24 23 23 22 22 22 20 19 17 14
31 40 39 39 36 35 35 35 34 31 27 24 23 22 21 17 15 13 11 10 14 16
32 37 38 40 40 38 37 34 30 26 22 21 20 16 14 12 11 13 13 18 16 16
30 32 32 36 39 38 34 30 27 27 24 22 18 19 23 22 24 20 22 19 15 14
26 31 34 38 39 37 33 29 28 27 29 26 25 24 21 19 20 22 21 17 14 15
21 28 35 38 38 34 31 30 29 31 26 22 22 21 21 25 24 19 16 19 19 19
18 26 31 34 32 29 27 27 25 24 23 22 21 23 23 19 18 19 18 17 18 18
20 23 26 25 25 24 25 23 21 22 22 23 23 23 20 19 18 19 20 18 16 14
18 20 24 25 24 23 23 23 24 24 23 22 21 20 16 15 20 18 17 16 14 13
18 21 26 23 24 23 23 23 23 23 23 20 18 16 16 20 16 15 14 14 13 14
20 22 24 22 24 24 24 24 23 23 20 17 16 17 19 16 15 14 13 14 13 11
19 24 26 25 26 24 25 22 22 20 19 18 18 21 22 21 21 21 18 15 14 10
22 25 26 27 28 28 23 23 23 21 17 16 20 25 26 24 24 22 20 18 15 12
23 27 28 31 31 26 26 25 24 19 16 16 22 29 28 25 21 18 17 16 15 14
Wind_Direction
206 210 213 216 216 215 212 209 211 210 210 209 208 202 196 192 191 193 197 200 198 211
205 206 208 210 208 210 211 208 210 210 209 206 205 195 183 175 170 172 188 214 211 212
198 200 206 208 206 206 209 208 208 210 207 201 184 180 173 172 207 216 217 215 209 204
204 203 203 202 204 207 210 208 203 206 202 198 193 223 241 241 243 219 205 201 194 195
214 207 206 204 204 202 204 206 198 191 193 210 229 230 223 211 198 199 196 187 195 209
211 203 200 199 198 197 203 201 197 206 213 208 204 209 196 193 186 187 200 200 197 199
221 208 202 199 198 200 203 205 205 201 201 206 201 188 188 196 193 193 193 196 195 200
216 208 208 207 208 210 209 206 201 197 194 195 196 196 192 187 189 195 196 195 194 196
205 216 219 220 214 208 203 202 200 198 198 194 189 184 195 184 196 190 198 200 193 192
211 214 218 217 210 203 203 204 206 204 202 196 199 200 177 194 186 186 186 188 190 190
213 212 216 211 206 204 206 206 204 205 203 187 187 180 189 177 177 178 179 180 188 198
221 216 215 211 212 209 202 200 205 206 193 192 181 190 174 181 184 190 191 197 202 201
231 226 222 217 210 202 202 203 204 198 199 187 186 178 181 189 197 203 202 204 211 209
239 229 219 213 207 203 202 197 194 196 195 183 189 186 188 198 206 209 203 203 208 212
Height
1432 1437 1440 1446 1453 1455 1459 1463 1465 1468 1471 1472 1476 1475 1476 1479 1481 1485 1488 1491 1492 1497
1429 1432 1437 1441 1448 1450 1454 1455 1460 1464 1467 1470 1473 1473 1472 1476 1481 1485 1486 1489 1492 1495
1424 1429 1433 1436 1440 1443 1449 1451 1456 1463 1467 1470 1469 1478 1475 1471 1477 1483 1483 1489 1489 1492
1421 1427 1433 1435 1438 1442 1445 1451 1451 1455 1461 1467 1470 1469 1473 1469 1472 1479 1484 1487 1484 1489
1419 1423 1426 1431 1434 1439 1442 1446 1447 1452 1460 1463 1467 1468 1470 1468 1471 1477 1480 1481 1483 1484
1419 1420 1424 1426 1432 1436 1438 1443 1446 1450 1455 1457 1460 1463 1463 1470 1470 1474 1477 1481 1480 1482
1419 1422 1425 1427 1430 1434 1438 1441 1444 1447 1452 1458 1461 1462 1468 1470 1469 1473 1474 1477 1478 1482
1422 1420 1427 1429 1431 1434 1437 1441 1444 1448 1452 1457 1459 1462 1463 1466 1469 1470 1471 1475 1477 1479
1416 1423 1427 1430 1431 1434 1437 1440 1443 1447 1452 1453 1455 1459 1461 1464 1468 1469 1470 1474 1475 1477
1417 1419 1428 1427 1429 1430 1435 1439 1443 1446 1448 1451 1454 1459 1460 1464 1467 1467 1469 1470 1475 1474
1416 1418 1426 1428 1428 1428 1432 1437 1440 1445 1447 1451 1454 1458 1460 1463 1467 1468 1468 1470 1472 1473
1412 1417 1421 1419 1424 1427 1431 1437 1440 1444 1446 1449 1451 1455 1461 1464 1466 1467 1468 1468 1471 1471
1410 1414 1416 1419 1421 1424 1429 1434 1438 1442 1446 1447 1450 1454 1460 1462 1464 1465 1465 1467 1468 1471
1406 1410 1412 1414 1420 1425 1427 1432 1435 1441 1445 1446 1451 1454 1457 1459 1462 1464 1464 1465 1468 1471